Вернуться в каталог

STARLINK-32504

АктивенСвязьVLEO
NORAD 62024·PAYLOAD·🇺🇸 United States

Запущен Nov 18, 2024 с Vandenberg Space Force Base

Loading…

Ближайшие Пролёты (ближайшие 24 часа)

TLE

СвежийSource: CelesTrak SupGP

Эпоха: Sep 15, 2026, 02:04 UTC

1 62024C 24213S   26258.08659722  .00043099  00000+0  12734-2 0  2589
2 62024  53.1605   7.0401 0001213  85.1356 199.4477 15.34367727    10

Отслеживайте STARLINK-32504 в реальном времени с AllMySat

Download on the App Store